Weather in Lensovetovsky

Russia / Saint-Petersburg and Leningrad Oblast     59°45′22″N   30°28′28″E
temp.,
°C
wind,
m/s
gust,
m/s
humid.,
%
clouds,
%
prec.,
mm/h
press.,
hPa
HPBL,
m
8 may, sat
sat800:00+3sse2395100 0.0 100559
03:00+3se1194100 0.0 100411
06:00+4ssw1197100 1.7 100343
09:00+4wnw1297100 4.9 1002719
12:00+4wnw3597100 2.3 1003700
15:00+3w4797100 5.6 1005683
18:00+6wnw4780100 2.9 1007967
21:00+4wnw41087100 2.9 1008392
9 may, sun
sun900:00+1w38925 0.0 1010181
03:00+1w411935 0.0 1011236
06:00+2w410890 0.0 1013278
09:00+6wnw58610 0.0 1014833
12:00+9wnw57441 0.0 10161382
15:00+11wnw47365 0.0 10181781
18:00+11wsw3549100 0.1 10181407
21:00+6ssw3571100 0.3 101977
10 may, mon
mon1000:00+4s3979100 0.0 1019161
03:00+6s41078100 0.0 1019264
06:00+6s51391100 0.9 1018652
09:00+7ssw51391100 1.9 1019572
12:00+11ssw4983100 0.0 1020619
15:00+18sw596183 0.0 10201491
18:00+19sw4862100 0.1 1020646
21:00+14s41178100 0.1 1021275
11 may, tue
tue1100:00+13ssw51483100 0.0 1022396
03:00+12ssw51385100 0.0 1023403
06:00+11s41385100 0.0 1024392
09:00+15s612651 0.0 1024591
12:00+19s69475 0.0 10241147
15:00+21s694327 0.0 10241454
18:00+20s69524 0.0 10231204
21:00+14s39714 0.0 1024197
12 may, wed
wed1200:00+12s312830 0.0 1025257
03:00+10s311860 0.0 1025226
06:00+10s39870 0.0 1025226
09:00+16s47642 0.0 1025494
12:00+20sse57484 0.0 10251183
15:00+22s46411 0.0 10241335
18:00+22s35480 0.0 10241330
21:00+16s22710 0.0 102411